If you wish to contribute or participate in the discussions about articles you are invited to join SKYbrary as a registered user

 Actions

Tallinn/Ulemiste

From SKYbrary Wiki

EETN
Airport
ICAO: EETN
Summary
Name Tallinn/Ulemiste
Region Europe
Territory Estonia EE.gif
Location Tallinn
Serving
Coordinates 59° 24' 59.48" N, 24° 47' 57.49" E
Runways
Designator Length Width Surface ROPS
8/26 3070 m10,072.178 ft
45 m147.638 ft
ASP yes/yes


METAR
Observation EETN 190120Z 21001KT 9999 SCT018 M10/M11 Q1004 R08/450295
Station Tallinn
Date/Time 19 January 2019 01:20:00
Wind direction 210°
Wind speed 01 kts
Lowest cloud amount scattered clouds
Temperature
Dew point
Humidity 92%
QNH 1004 hPa
Weather condition n/a

Tallinn Airport

ICAO: EETN IATA: TLL

Description

International airport serving capital city of Estonia.

Climatology

Humid Continental climate (Köppen climate classification Dfb) - Variable weather patterns and a large seasonal temperature variance. Summers are often warm and humid with frequent thunderstorms and winters can be very cold with frequent snowfall and persistent snow cover.

Maps

Terrain

Loading map...

Airport Layout

Loading map...


Accidents & Serious Incidents at or in vicinity of EETN

None on SKYbrary